EW1707 Weather Reports


time (UTC)temp
F
wind
direction
speed
knots
gust
knots
rain 1hr
in
rain 24hr
in
rain mn
in
humidity
%
barometer
mb
20220812180024 77 360 1.7 7.0 0.00 0.00 0.00 38 1014.9
20220812174521 76 360 1.7 8.7 0.00 0.00 0.00 39 1015.0
20220812173022 75 27 1.7 6.1 0.00 0.00 0.00 40 1015.3
20220812171536 73 360 0.0 6.1 0.00 0.00 0.00 41 1015.5
20220812170039 72 360 1.7 7.8 0.00 0.00 0.00 43 1015.8
20220812164511 70 360 2.6 7.8 0.00 0.00 0.00 45 1015.8
20220812163007 69 360 2.6 8.7 0.00 0.00 0.00 46 1016.0
20220812161503 68 360 1.7 7.8 0.00 0.00 0.00 47 1015.9
20220812160001 68 360 0.9 7.0 0.00 0.00 0.00 47 1016.1
20220812154608 67 13 1.7 8.7 0.00 0.00 0.00 49 1016.1
20220812153058 67 360 0.9 5.2 0.00 0.00 0.00 50 1016.1
20220812151557 67 91 2.6 6.1 0.00 0.00 0.00 48 1016.1
20220812150055 66 360 2.6 7.0 0.00 0.00 0.00 48 1016.1
20220812144553 66 360 1.7 7.0 0.00 0.00 0.00 49 1016.0
20220812143100 65 360 1.7 6.1 0.00 0.00 0.00 50 1015.8
20220812141549 65 360 2.6 6.1 0.00 0.00 0.00 52 1015.7
20220812140111 64 360 0.9 5.2 0.00 0.00 0.00 52 1015.5
20220812134554 62 348 0.9 3.5 0.00 0.00 0.00 52 1015.4
20220812133046 61 351 0.0 3.5 0.00 0.00 0.00 55 1015.3
20220812131551 60 360 0.0 3.5 0.00 0.00 0.00 54 1015.2
20220812130055 59 334 0.0 0.0 0.00 0.00 0.00 54 1015.1
20220812124541 59 335 0.0 0.0 0.00 0.00 0.00 52 1015.2
20220812123049 60 360 0.0 0.0 0.00 0.00 0.00 50 1015.1
20220812121547 60 360 0.9 5.2 0.00 0.00 0.00 49 1014.9
20220812120045 60 360 1.7 5.2 0.00 0.00 0.00 48 1014.6
20220812114547 61 360 2.6 8.7 0.00 0.00 0.00 47 1014.6
20220812113047 61 360 3.5 7.0 0.00 0.00 0.00 47 1014.5
20220812111555 61 360 3.5 7.0 0.00 0.00 0.00 46 1014.4
20220812110037 62 360 4.3 8.7 0.00 0.00 0.00 46 1014.3
20220812104535 62 360 4.3 12.2 0.00 0.00 0.00 46 1014.4
20220812103050 62 360 5.2 11.3 0.00 0.00 0.00 46 1014.3
20220812101548 61 286 4.3 10.4 0.00 0.00 0.00 46 1014.3
20220812100033 60 360 5.2 9.6 0.00 0.00 0.00 48 1014.3
20220812094532 59 360 3.5 7.0 0.00 0.00 0.00 48 1014.3
20220812093030 59 360 3.5 7.0 0.00 0.00 0.00 50 1014.3
20220812091545 59 360 3.5 7.8 0.00 0.00 0.00 51 1014.3
20220812090027 59 244 3.5 6.1 0.00 0.00 0.00 52 1014.3
20220812084525 59 360 1.7 7.0 0.00 0.00 0.00 52 1014.2
20220812083031 60 360 3.5 6.1 0.00 0.00 0.00 51 1014.2
20220812081522 60 360 1.7 5.2 0.00 0.00 0.00 49 1014.1
20220812080021 60 360 1.7 6.1 0.00 0.00 0.00 48 1014.3
20220812074522 61 360 3.5 5.2 0.00 0.00 0.00 47 1014.3
20220812073018 61 360 2.6 5.2 0.00 0.00 0.00 47 1014.2
20220812071515 62 360 2.6 7.0 0.00 0.00 0.00 46 1014.2
20220812070020 62 360 2.6 5.2 0.00 0.00 0.00 46 1014.4
20220812064520 63 360 1.7 7.8 0.00 0.00 0.00 44 1014.6
20220812063019 64 360 0.9 7.0 0.00 0.00 0.00 43 1014.6
20220812061504 64 360 1.7 8.7 0.00 0.00 0.00 42 1014.7
20220812060003 64 360 4.3 9.6 0.00 0.00 0.00 43 1014.6
20220812054504 64 360 4.3 7.8 0.00 0.00 0.00 42 1014.5
20220812053004 64 360 4.3 10.4 0.00 0.00 0.00 42 1014.5
20220812051500 64 360 4.3 7.8 0.00 0.00 0.00 42 1014.5
20220812050113 65 360 3.5 7.8 0.00 0.00 0.00 42 1014.6
20220812044631 65 360 3.5 7.8 0.00 0.00 0.00 42 1014.6
20220812043059 65 360 6.1 11.3 0.00 0.00 0.00 42 1014.8
20220812041605 64 360 3.5 10.4 0.00 0.00 0.00 43 1014.6
20220812040138 64 360 4.3 8.7 0.00 0.00 0.00 46 1014.7
20220812034604 64 360 5.2 12.2 0.00 0.00 0.00 48 1014.5
20220812033105 65 256 1.7 3.5 0.00 0.00 0.00 47 1014.5
20220812031609 65 360 0.9 3.5 0.00 0.00 0.00 49 1014.3
20220812030105 66 360 0.9 2.6 0.00 0.00 0.00 47 1014.4
20220812024556 67 360 1.7 6.1 0.00 0.00 0.00 47 1014.2
20220812023128 68 360 2.6 6.1 0.00 0.00 0.00 44 1013.9
20220812021617 69 290 2.6 5.2 0.00 0.00 0.00 43 1013.9
20220812020054 71 290 1.7 4.3 0.00 0.00 0.00 41 1013.8
20220812014604 72 360 2.6 4.3 0.00 0.00 0.00 40 1013.8
20220812013057 73 360 0.9 3.5 0.00 0.00 0.00 37 1013.8
20220812011559 74 35 0.0 0.9 0.00 0.00 0.00 35 1013.8
20220812010100 75 360 0.0 1.7 0.00 0.00 0.00 32 1013.8
20220812004605 75 360 0.0 3.5 0.00 0.00 0.00 31 1013.9
20220812003108 76 360 0.9 5.2 0.00 0.00 0.00 31 1013.8
20220812001549 76 360 0.0 6.1 0.00 0.00 0.00 33 1013.8
20220812000048 76 360 1.7 4.3 0.00 0.00 0.00 33 1014.0
20220811234555 77 360 0.9 4.3 0.00 0.00 0.00 34 1013.9
20220811233100 77 360 0.9 3.5 0.00 0.00 0.00 34 1014.1
20220811231549 77 360 1.7 6.1 0.00 0.00 0.00 33 1014.2
20220811230046 77 360 0.0 6.1 0.00 0.00 0.00 33 1014.3
20220811224603 78 360 1.7 6.1 0.00 0.00 0.00 33 1014.3
20220811223058 78 360 0.9 7.8 0.00 0.00 0.00 32 1014.1
20220811221549 78 360 2.6 7.8 0.00 0.00 0.00 31 1014.2
20220811220044 79 360 2.6 8.7 0.00 0.00 0.00 30 1014.3
20220811214543 80 360 2.6 11.3 0.00 0.00 0.00 30 1014.2
20220811213117 81 360 2.6 9.6 0.00 0.00 0.00 28 1014.2
20220811211601 81 360 3.5 8.7 0.00 0.00 0.00 27 1014.4
20220811210047 81 360 3.5 9.6 0.00 0.00 0.00 26 1014.3
20220811204545 82 360 1.7 10.4 0.00 0.00 0.00 27 1014.3
20220811203048 82 360 4.3 8.7 0.00 0.00 0.00 26 1014.6
20220811201543 82 360 2.6 9.6 0.00 0.00 0.00 27 1014.8
20220811200039 82 360 4.3 9.6 0.00 0.00 0.00 26 1015.0
20220811194542 82 360 3.5 7.8 0.00 0.00 0.00 28 1015.1
20220811193035 82 360 3.5 10.4 0.00 0.00 0.00 29 1015.3
20220811191546 82 360 2.6 10.4 0.00 0.00 0.00 29 1015.2
20220811190031 82 360 2.6 8.7 0.00 0.00 0.00 29 1015.2
20220811184528 81 360 4.3 8.7 0.00 0.00 0.00 29 1015.3
20220811183027 80 360 5.2 9.6 0.00 0.00 0.00 30 1015.4
20220811181533 81 360 2.6 7.8 0.00 0.00 0.00 30 1015.7